PKNJT WAVV-WAYY

Flight info

Callsign PKNJT
Flight time N/A
Altitude 14500
Route YES
Aircraft BE58/L-V/N

Departure

Time 2026-05-04 14:30
Airport Wamena Airport (WAVV)

Arrival

Time N/A
Airport Mozes Kilangin Airport (WAYY)
Time Latitude Longitude Altitude Speed Heading
2026-05-04 14:29 -4.09343 138.94966 5385 ft 4 kts 134°
2026-05-04 14:29 -4.09359 138.95050 5392 ft 29 kts 152°
2026-05-04 14:30 -4.09771 138.95261 5388 ft 99 kts 153°
2026-05-04 14:30 -4.10509 138.95640 5475 ft 134 kts 152°
2026-05-04 14:30 -4.12146 138.96739 6120 ft 148 kts 137°
2026-05-04 14:31 -4.12826 138.97489 6615 ft 143 kts 124°
2026-05-04 14:31 -4.14282 138.98883 7320 ft 150 kts 153°
2026-05-04 14:32 -4.16251 138.99345 7880 ft 161 kts 197°
2026-05-04 14:32 -4.17161 138.98736 8292 ft 154 kts 232°
2026-05-04 14:32 -4.17569 138.97786 8739 ft 152 kts 262°
2026-05-04 14:32 -4.17512 138.96704 9035 ft 158 kts 283°
2026-05-04 14:33 -4.17164 138.95695 9542 ft 150 kts 291°
2026-05-04 14:33 -4.16818 138.94697 9887 ft 156 kts 283°
2026-05-04 14:33 -4.16777 138.93599 10176 ft 161 kts 256°
2026-05-04 14:33 -4.17330 138.92625 10466 ft 163 kts 240°
2026-05-04 14:34 -4.17587 138.91935 10725 ft 161 kts 268°
2026-05-04 14:34 -4.17005 138.90923 10550 ft 192 kts 334°
2026-05-04 14:34 -4.15979 138.90291 11207 ft 162 kts 296°
2026-05-04 14:34 -4.16072 138.89107 11110 ft 188 kts 256°
2026-05-04 14:35 -4.16196 138.87991 12066 ft 138 kts 271°
2026-05-04 14:35 -4.16113 138.87009 12326 ft 159 kts 275°
2026-05-04 14:35 -4.15992 138.85772 12288 ft 183 kts 285°
2026-05-04 14:35 -4.15514 138.84578 12523 ft 188 kts 294°
2026-05-04 14:36 -4.15002 138.83385 12700 ft 194 kts 292°
2026-05-04 14:36 -4.14280 138.80969 13774 ft 166 kts 285°
2026-05-04 14:36 -4.10330 138.69942 14214 ft 234 kts 297°
2026-05-04 14:36 -4.07899 138.57542 14451 ft 243 kts 275°
2026-05-04 14:37 -4.06179 138.44094 14232 ft 243 kts 276°
2026-05-04 14:37 -4.03763 138.30705 13964 ft 238 kts 285°
2026-05-04 14:37 -3.98120 138.18596 13726 ft 241 kts 303°
2026-05-04 14:37 -3.86661 138.11914 13263 ft 243 kts 340°
2026-05-04 14:38 -3.80341 138.09644 12742 ft 250 kts 339°
2026-05-04 14:38 -3.77035 138.09192 12028 ft 250 kts 18°
2026-05-04 14:38 -3.73816 138.10785 10201 ft 256 kts 27°
2026-05-04 14:38 -3.71022 138.12576 8163 ft 228 kts 50°
2026-05-04 14:39 -3.69843 138.15396 6714 ft 202 kts 75°
2026-05-04 14:39 -3.69492 138.17040 6334 ft 177 kts 78°
2026-05-04 14:39 -3.69374 138.18185 6201 ft 152 kts 93°
2026-05-04 14:40 -3.69971 138.20114 6346 ft 145 kts 115°
2026-05-04 14:40 -3.70649 138.20582 6862 ft 118 kts 198°
2026-05-04 14:40 -3.70995 138.19845 6835 ft 136 kts 287°
2026-05-04 14:40 -3.70432 138.19023 6803 ft 153 kts 317°
2026-05-04 14:41 -3.69521 138.18620 7068 ft 140 kts 11°
2026-05-04 14:41 -3.68902 138.19263 7267 ft 140 kts 89°
2026-05-04 14:41 -3.70422 138.20011 6335 ft 105 kts 175°
2026-05-04 14:42 -3.70842 138.20048 6430 ft 0 kts 207°
2026-05-04 14:50 -3.70843 138.20048 6433 ft 1 kts 205°
2026-05-04 14:51 -3.70840 138.20058 6430 ft 3 kts 347°
2026-05-04 14:51 -3.70838 138.20058 6430 ft 0 kts 347°
2026-05-04 14:51 -3.70744 138.20044 6402 ft 51 kts 354°
2026-05-04 14:51 -3.70102 138.19968 6274 ft 124 kts 353°
2026-05-04 14:52 -3.69316 138.19666 6526 ft 129 kts 294°
2026-05-04 14:52 -3.69459 138.18814 6771 ft 132 kts 222°
2026-05-04 14:52 -3.70345 138.18632 6996 ft 142 kts 149°
2026-05-04 14:52 -3.70583 138.19502 7118 ft 152 kts 71°
2026-05-04 14:53 -3.70250 138.20565 7177 ft 164 kts 83°
2026-05-04 14:53 -3.70302 138.21679 7521 ft 155 kts 94°
2026-05-04 14:53 -3.70393 138.22783 7737 ft 167 kts 94°
2026-05-04 14:53 -3.70608 138.23969 7998 ft 174 kts 104°
2026-05-04 14:54 -3.70965 138.25130 8375 ft 176 kts 108°
2026-05-04 14:54 -3.71228 138.26336 8611 ft 179 kts 87°
2026-05-04 14:54 -3.71156 138.27539 8913 ft 174 kts 83°
2026-05-04 14:54 -3.70954 138.28731 9155 ft 174 kts 77°
2026-05-04 14:55 -3.70459 138.29846 9326 ft 181 kts 57°
2026-05-04 14:55 -3.69689 138.30826 9684 ft 177 kts 45°
2026-05-04 14:55 -3.68853 138.31751 9837 ft 186 kts 49°
2026-05-04 14:55 -3.67996 138.32715 10060 ft 181 kts 48°
2026-05-04 14:56 -3.67141 138.33645 10114 ft 185 kts 47°
2026-05-04 14:56 -3.66233 138.34572 10178 ft 186 kts 45°
2026-05-04 14:56 -3.65294 138.35442 10324 ft 183 kts 41°
2026-05-04 14:56 -3.64648 138.36471 10379 ft 173 kts 78°
2026-05-04 14:57 -3.64454 138.37691 10148 ft 187 kts 82°
2026-05-04 14:57 -3.64281 138.38996 9540 ft 187 kts 83°
2026-05-04 14:57 -3.64036 138.40214 9244 ft 179 kts 38°
2026-05-04 14:57 -3.62788 138.40354 9064 ft 179 kts
2026-05-04 14:58 -3.61551 138.40406 8627 ft 176 kts 357°
2026-05-04 14:58 -3.60355 138.40237 8999 ft 174 kts 351°
2026-05-04 14:58 -3.59118 138.40030 9128 ft 185 kts 345°
2026-05-04 14:58 -3.57890 138.39686 9442 ft 180 kts 348°
2026-05-04 14:59 -3.56678 138.39340 9619 ft 184 kts 342°
2026-05-04 14:59 -3.55509 138.38765 9692 ft 190 kts 321°
2026-05-04 14:59 -3.54158 138.36637 9851 ft 182 kts 291°
2026-05-04 15:00 -3.53677 138.35449 9821 ft 185 kts 290°
2026-05-04 15:00 -3.53142 138.34269 9759 ft 188 kts 299°
2026-05-04 15:00 -3.52519 138.33125 9835 ft 184 kts 302°
2026-05-04 15:01 -3.51283 138.30833 9814 ft 188 kts 297°
2026-05-04 15:01 -3.50687 138.29664 9817 ft 187 kts 296°
2026-05-04 15:01 -3.50111 138.28512 9805 ft 189 kts 298°
2026-05-04 15:01 -3.49452 138.27318 9547 ft 200 kts 299°
2026-05-04 15:02 -3.48734 138.26139 9310 ft 197 kts 302°
2026-05-04 15:02 -3.47974 138.24995 8971 ft 198 kts 306°
2026-05-04 15:02 -3.47120 138.23952 8560 ft 190 kts 313°
2026-05-04 15:02 -3.46233 138.22996 7951 ft 182 kts 313°
2026-05-04 15:03 -3.45259 138.22189 7101 ft 189 kts 327°
2026-05-04 15:03 -3.44325 138.21371 6828 ft 167 kts 295°
2026-05-04 15:03 -3.44055 138.20273 6256 ft 176 kts 278°
2026-05-04 15:03 -3.43775 138.19086 5977 ft 166 kts 287°
2026-05-04 15:04 -3.43390 138.18035 5664 ft 159 kts 293°
2026-05-04 15:04 -3.42964 138.17046 5382 ft 155 kts 292°
2026-05-04 15:04 -3.42545 138.16060 5250 ft 153 kts 296°
2026-05-04 15:04 -3.41941 138.15193 5119 ft 152 kts 312°
2026-05-04 15:05 -3.41243 138.14411 5031 ft 149 kts 311°
2026-05-04 15:05 -3.40568 138.13630 4937 ft 152 kts 310°
2026-05-04 15:05 -3.39886 138.12818 5196 ft 148 kts 309°
2026-05-04 15:05 -3.39247 138.12029 5298 ft 144 kts 308°
2026-05-04 15:06 -3.38624 138.11227 5214 ft 153 kts 307°
2026-05-04 15:06 -3.37997 138.10362 5229 ft 150 kts 304°
2026-05-04 15:06 -3.37437 138.09493 5262 ft 149 kts 300°
2026-05-04 15:07 -3.36550 138.07585 5354 ft 149 kts 287°
2026-05-04 15:07 -3.36306 138.06576 5408 ft 151 kts 284°
2026-05-04 15:07 -3.35719 138.05699 5260 ft 164 kts 332°
2026-05-04 15:07 -3.34563 138.05460 5112 ft 165 kts 348°
2026-05-04 15:08 -3.33534 138.05196 5337 ft 154 kts 343°
2026-05-04 15:08 -3.32493 138.04854 5334 ft 156 kts 339°
2026-05-04 15:08 -3.31505 138.04446 5417 ft 155 kts 336°
2026-05-04 15:08 -3.30503 138.04023 5438 ft 156 kts 337°
2026-05-04 15:09 -3.29519 138.03610 5538 ft 153 kts 337°
2026-05-04 15:09 -3.28535 138.03173 5528 ft 156 kts 335°
2026-05-04 15:09 -3.27568 138.02691 5599 ft 154 kts 332°
2026-05-04 15:10 -3.25837 138.01430 5631 ft 159 kts 303°
2026-05-04 15:10 -3.25487 138.00384 5615 ft 160 kts 271°
2026-05-04 15:10 -3.26618 137.98633 5620 ft 161 kts 204°
2026-05-04 15:11 -3.27619 137.98196 5665 ft 153 kts 202°
2026-05-04 15:11 -3.28564 137.97694 5475 ft 160 kts 224°
2026-05-04 15:11 -3.29059 137.96682 5202 ft 167 kts 266°
2026-05-04 15:11 -3.28786 137.95595 4986 ft 163 kts 308°
2026-05-04 15:12 -3.27774 137.95171 4473 ft 173 kts 12°
2026-05-04 15:12 -3.27068 137.96076 3769 ft 186 kts 97°
2026-05-04 15:12 -3.27995 137.96808 3238 ft 183 kts 183°
2026-05-04 15:12 -3.28960 137.96298 3482 ft 144 kts 232°
2026-05-04 15:13 -3.29236 137.95348 3270 ft 147 kts 274°
2026-05-04 15:13 -3.29154 137.94326 3046 ft 149 kts 287°
2026-05-04 15:13 -3.28542 137.93485 2657 ft 152 kts 325°
2026-05-04 15:13 -3.27567 137.93185 2395 ft 146 kts
2026-05-04 15:14 -3.26716 137.93677 2041 ft 148 kts 56°
2026-05-04 15:14 -3.26583 137.94653 1841 ft 139 kts 99°
2026-05-04 15:14 -3.27047 137.95402 1892 ft 127 kts 152°
2026-05-04 15:14 -3.27922 137.95520 1545 ft 131 kts 198°
2026-05-04 15:15 -3.28666 137.94936 1435 ft 146 kts 246°
2026-05-04 15:15 -3.28518 137.93972 1442 ft 149 kts 313°
2026-05-04 15:15 -3.27931 137.93657 1442 ft 148 kts 353°
2026-05-04 15:16 -3.27062 137.95022 1373 ft 143 kts 126°
2026-05-04 15:16 -3.27907 137.95375 1171 ft 134 kts 182°
2026-05-04 15:16 -3.29616 137.94787 493 ft 127 kts 205°
2026-05-04 15:17 -3.30380 137.94451 300 ft 108 kts 202°
2026-05-04 15:17 -3.30830 137.94256 350 ft 0 kts 204°
2026-05-04 15:17 -3.30837 137.94252 348 ft 0 kts 218°
2026-05-04 15:18 -3.28925 137.95109 765 ft 130 kts 204°
2026-05-04 15:18 -3.29295 137.94939 627 ft 130 kts 204°
2026-05-04 15:19 -3.30729 137.94300 335 ft 67 kts 203°
2026-05-04 15:19 -3.30830 137.94256 350 ft 39 kts 204°